This is the latest recevied weather packets stored in our database for station/object DB0HOL-4. If no packets are shown the sender has not sent any weather packets the latest 10 day(s).
| Time | Temp. | Humidity | Pressure | Rain* | Wind** | Luminosity | Snow |
|---|---|---|---|---|---|---|---|
| 1778090197 | 7.22° C | 99% | 1005.4 hPa | 0 mm | - | 112 W/m² | - |
| 1778088397 | 7.22° C | 99% | 1005.4 hPa | 0 mm | - | 194 W/m² | - |
| 1778086597 | 7.22° C | 99% | 1005 hPa | 0 mm | - | 399 W/m² | - |
| 1778084797 | 7.22° C | 99% | 1005 hPa | 0 mm | - | 307 W/m² | - |
| 1778082996 | 7.22° C | 99% | 1005 hPa | 0 mm | - | 290 W/m² | - |
| 1778081197 | 7.22° C | 99% | 1005 hPa | 0 mm | - | 515 W/m² | - |
| 1778079397 | 7.22° C | 99% | 1005 hPa | 0 mm | - | 525 W/m² | - |
| 1778077597 | 7.22° C | 99% | 1004.7 hPa | 0 mm | - | 612 W/m² | - |
| 1778075797 | 7.22° C | 99% | 1005 hPa | 0 mm | - | 724 W/m² | - |
| 1778073997 | 7.22° C | 99% | 1004.7 hPa | 0 mm | - | 550 W/m² | - |
| 1778072197 | 7.22° C | 99% | 1004.4 hPa | 0 mm | - | 862 W/m² | - |
| 1778070397 | 6.67° C | 99% | 1004.4 hPa | 0 mm | - | 880 W/m² | - |
| 1778068597 | 6.67° C | 99% | 1004.4 hPa | 0 mm | - | 763 W/m² | - |
| 1778066797 | 6.67° C | 99% | 1004.4 hPa | 0 mm | - | 120 W/m² | - |
| 1778064998 | 6.67° C | 99% | 1004 hPa | 0 mm | - | 106 W/m² | - |
| 1778063197 | 6.67° C | 99% | 1003.7 hPa | 0 mm | - | 854 W/m² | - |
| 1778061397 | 7.22° C | 99% | 1003.3 hPa | 0 mm | - | 420 W/m² | - |
| 1778059596 | 7.22° C | 99% | 1003.3 hPa | 0 mm | - | 450 W/m² | - |
| 1778057797 | 6.67° C | 99% | 1003.3 hPa | 0 mm | - | 685 W/m² | - |
| 1778055997 | 6.67° C | 99% | 1003 hPa | 0 mm | - | 520 W/m² | - |
| 1778054197 | 7.22° C | 99% | 1003 hPa | 0 mm | - | 503 W/m² | - |
| 1778052397 | 7.22° C | 99% | 1003 hPa | 0 mm | - | 602 W/m² | - |
| 1778050598 | 7.22° C | 99% | 1003 hPa | 0 mm | - | 251 W/m² | - |
| 1778048797 | 7.78° C | 99% | 1002.7 hPa | 0 mm | - | 138 W/m² | - |
| 1778046997 | 7.78° C | 99% | 1003 hPa | 0 mm | - | 68 W/m² | - |
* Rain latest hour (hover to see other rain measurements)
** Current wind speed in m/s (hover to see current wind gust speed)